Regional Weather Roundup
Issued by NWS Albany, NY

Home | Current Version | Previous Version | Graphics & Text | Print | Product List | Glossary Off
Versions: 1 2 3 4 5 6 7 8 9 10 11 12 13 14 15 16 17 18 19 20 21 22 23 24 25 26 27 28 29 30 31 32 33 34 35 36 37 38 39 40 41 42 43 44 45 46 47 48 49 50

000
ASUS41 KALY 180510
RWRALY

NEW YORK STATE HOURLY WEATHER ROUNDUP
NATIONAL WEATHER SERVICE ALBANY NY
1200 AM EST THU DEC 18 2014

NOTE: "FAIR" INDICATES FEW OR NO CLOUDS BELOW 12,000 FEET WITH NO
SIGNIFICANT WEATHER AND/OR NO OBSTRUCTIONS TO VISIBILITY.

NYZ032-033-038>043-046>054-057>066-NYZ062>081-180600-
EAST


CITY           SKY/WX    TMP DP  RH WIND       PRES   REMARKS
ALBANY         CLOUDY    37  29  72 W9        29.85S WCI  30
GLENS FALLS    CLOUDY    35  31  85 SW8       29.79S WCI  29
POUGHKEEPSIE   CLOUDY    41  28  60 W9        29.85F
NEWBURGH       CLOUDY    39  30  70 NW14      29.87  WCI  31
MONTGOMERY     CLOUDY    39  27  62 NW12G17   29.86F WCI  32
WHITE PLAINS   MOCLDY    40  29  64 NW13G24   29.84F WCI  32
ISLIP          MOCLDY    42  32  67 NW9       29.84F
NEW YORK CITY  MOCLDY    42  27  55 W15G23    29.88F
CENTRAL PARK   CLOUDY    42  26  53 W8G18     29.90F
$$

NYZ005>009-017-018-044>046-055-056-180600-
CENTRAL


CITY           SKY/WX    TMP DP  RH WIND       PRES   REMARKS
FULTON         LGT SNOW  33  30  88 W17       29.90S FOG     WCI  22
SYRACUSE       LGT SNOW  32  31  96 W16       29.91S FOG     WCI  21
ROME           FLURRIES  33  30  88 W14G20    29.89R WCI  23
ELMIRA         LGT SNOW  32  28  85 W6        29.95S FOG     WCI  26
BINGHAMTON     LGT SNOW  30  25  81 W10G20    29.87S WCI  21
MONTICELLO     CLOUDY    32  28  86 W8G24     29.86F WCI  25
$$

NYZ026>034-041>043-180600-
NORTH


CITY           SKY/WX    TMP DP  RH WIND       PRES   REMARKS
WATERTOWN      CLOUDY    37  30  75 W15       29.85S WCI  28
FORT DRUM      NOT AVBL
MASSENA        FLURRIES  34  31  88 W8        29.80S WCI  27
SARANAC LAKE   LGT SNOW  32  32 100 SW6       29.71S WCI  26
PLATTSBURGH    LGT RAIN  34  34 100 CALM      29.75F FOG
$$

NYZ001>004-010>016-019>021-180600-
WEST


CITY           SKY/WX    TMP DP  RH WIND       PRES   REMARKS
NIAGARA FALLS  MOCLDY    29  24  82 W20G29    29.99S WCI  16
BUFFALO        MOCLDY    30  23  75 W20G28    29.99S WCI  17
DUNKIRK        FLURRIES  32  24  72 W20G28    30.04S WCI  20
JAMESTOWN      CLOUDY    27  19  74 W17       30.00R WCI  14
WELLSVILLE     CLOUDY    27  21  78 W20G32    29.93S WCI  13
ROCHESTER      FLURRIES  32  27  81 W15       29.96R WCI  22
PENN YAN       LGT SNOW  32  26  78 W12       29.94S WCI  23
$$

             KEY
       WCI = WIND CHILL INDEX
       VSB = VISIBILITY
       HX  = HEAT INDEX
$$



USA.gov is the U.S. government's official web portal to all federal, state and local government web resources and services.